Flag for Norway Weather past 2 weeks in Gjøvik, Norway

Now
39 °F

Chilly.


Feels Like: 39 °F
Forecast: 43 / 57 °F
Wind: No wind

Location: Lillehammer-Saetherengen

Current Time: May 5, 2015 at 5:19:00 AM

Latest Report: May 5, 2015 at 4:00 AM


Visibility: N/A

Pressure: 29.78 "Hg

Humidity: 97%

Dew point: 38 °F

Location of GjøvikLocation

Historic Weather in Gjøvik — Graph

°F

Gjøvik temperature yesterday

Maximum temperature yesterday: 45 °F (at 11:00 AM)
Minimum temperature yesterday: 37 °F (at 3:00 AM)
Average temperature yesterday: 39 °F

Past Weeks' High & Low Weather Summary

 TemperatureHumidityPressure
High69 °F (Apr 20, 4:00 PM)97% (May 5, 4:00 AM)30.36 "Hg (May 5, 4:00 AM)
Low29 °F (Apr 27, 5:00 AM)15% (Apr 20, 5:00 PM)29.23 "Hg (Apr 25, 9:00 PM)
Average42 °F61%29.78 "Hg
* Reported Apr 20 4:00 AM — May 5 4:00 AM, Gjøvik, Weather by CustomWeather, © 2015

Note: Actual official high and low records may vary slightly from our data, if they occured in-between our weather recording intervals... More about our weather records

Advertising

Gjøvik weather history for previous 24 hours

 ConditionsComfort  
Time TempWeatherWind HumidityBarometerVisibility
4:00 AM
Tue, May 5
39 °FChilly.No wind97%29.78 "HgN/A
3:00 AM39 °FChilly.No wind96%29.77 "HgN/A
2:00 AM39 °FChilly.1 mph96%29.75 "HgN/A
1:00 AM39 °FChilly.No wind96%29.75 "HgN/A
12:00 AM39 °FChilly.No wind96%29.74 "HgN/A
11:00 PM
Mon, May 4
39 °FChilly.1 mph96%29.73 "HgN/A
10:00 PM39 °FChilly.1 mph96%29.72 "HgN/A
9:00 PM40 °FChilly.No wind95%29.71 "HgN/A
8:00 PM40 °FChilly.No wind95%29.70 "HgN/A
7:00 PM39 °FChilly.1 mph95%29.70 "HgN/A
6:00 PM39 °FChilly.1 mph94%29.70 "HgN/A
5:00 PM39 °FChilly.No wind92%29.70 "HgN/A
4:00 PM38 °FChilly.1 mph93%29.70 "HgN/A
3:00 PM37 °FChilly.2 mph93%29.70 "HgN/A
2:00 PM38 °FChilly.2 mph89%29.71 "HgN/A
1:00 PM40 °FChilly.2 mph86%29.71 "HgN/A
12:00 PM42 °FQuite cool.6 mph72%29.70 "HgN/A
11:00 AM45 °FCool.3 mph60%29.68 "HgN/A
10:00 AM42 °FQuite cool.1 mph70%29.70 "HgN/A
9:00 AM40 °FQuite cool.1 mph78%29.72 "HgN/A
8:00 AM38 °FChilly.1 mph82%29.73 "HgN/A
7:00 AM37 °FChilly.1 mph75%29.74 "HgN/A
6:00 AM37 °FChilly.1 mph73%29.75 "HgN/A
5:00 AM37 °FChilly.1 mph73%29.77 "HgN/A
Weather by CustomWeather, © 2015

See weather overviewHow to use our weather pages